GSAT-18

Last updated on Tue Dec 16 2025 00:02:51 GMT+0000 (Coordinated Universal Time)

1 41793U 16060A 25349.07314780 -.00000056 00000+0 00000+0 0 9990 2 41793 0.0507 102.3088 0001766 216.7240 225.2608 1.00271972 33686
UTC large
Height (km)
Speed (km/s)
/
Latitude / Longitude
Inclination (degrees)
Orbital Period (minutes)
Azimuth
Elevation
Range (km)
Doppler Factor

Next 0 passes for location: London (51.5072 / 0.1276)

Sorry there are no passes over London.